[ hide orbit diagram ]
For accurate long-term ephemerides, please instead use our Horizons system.This orbit viewer was implemented using two-body methods, and hence should not be used for determining accurate long-term trajectories (over several years or decades) or planetary encounter circumstances.
Orbital Elements at Epoch 2459000.5 (2020-May-31.0) TDB
Reference: JPL 18 (heliocentric ecliptic J2000)
Element | Value | Uncertainty (1-sigma) | Units |
e | .2253513972156044 | 4.7987e-08 | |
a | 2.404908577282334 | 1.0422e-08 | au |
q | 1.862959069215969 | 1.152e-07 | au |
i | 3.356082855635566 | 4.6109e-06 | deg |
node | 92.46885696885001 | 8.4463e-05 | deg |
peri | 295.2114345757222 | 8.5025e-05 | deg |
M | 83.18180421019683 | 9.3101e-06 | deg |
tp | 2458685.745375965897 (2019-Jul-21.24537597) | 3.4494e-05 | TDB |
period | 1362.216962329207 3.73 | 8.8554e-06 2.424e-08 | d yr |
n | .2642750824247913 | 1.718e-09 | deg/d |
Q | 2.946858085348699 | 1.2771e-08 | au |
|
| | Orbit Determination Parameters
Additional Information
|
[ hide covariance matrix ]
Orbital Elements at Epoch 2456667.5 (2014-Jan-10.0) TDB
Reference: JPL 18 (heliocentric ecliptic J2000)
Element | Value | Uncertainty (1-sigma) | Units |
e | .2257899844421979 | 4.7942e-08 | |
q | 1.861431957406637 | 1.1501e-07 | au |
tp | 2457320.474673372431 (2015-Oct-24.97467337) | 3.2302e-05 | TDB |
node | 92.57334432273697 | 8.461e-05 | deg |
peri | 294.5841917767236 | 8.5165e-05 | deg |
i | 3.353990435203822 | 4.6052e-06 | deg |
|
| | Orbit Determination Parameters
Additional Information
|
Orbit Covariance (6×6)
|
|
e |
q |
tp |
node |
peri |
i |
e |
2.298410973603868E-15 |
-5.500286184378829E-15 |
1.415626664513675E-13 |
1.15700722017896E-14 |
5.424332499632781E-14 |
-3.207750164882281E-15 |
q |
-5.500286184378829E-15 |
1.322636485871072E-14 |
-3.103429778268857E-13 |
-2.727732366090005E-14 |
-1.344040979295804E-13 |
7.722018479643228E-15 |
tp |
1.415626664513675E-13 |
-3.103429778268857E-13 |
1.04341816656943E-9 |
-7.937278164128545E-12 |
3.302546390042923E-10 |
4.565748675778591E-13 |
node |
1.15700722017896E-14 |
-2.727732366090005E-14 |
-7.937278164128545E-12 |
7.158769616646006E-9 |
-7.14903620883635E-9 |
-1.034196129423352E-10 |
peri |
5.424332499632781E-14 |
-1.344040979295804E-13 |
3.302546390042923E-10 |
-7.14903620883635E-9 |
7.253057227657304E-9 |
1.033614880736819E-10 |
i |
-3.207750164882281E-15 |
7.722018479643228E-15 |
4.565748675778591E-13 |
-1.034196129423352E-10 |
1.033614880736819E-10 |
2.120757632125677E-11 |
|
Physical Parameter Table
Parameter |
Symbol |
Value |
Units |
Sigma |
Reference |
Notes |
absolute magnitude |
H |
16.6 |
|
n/a |
MPO453511 |
|
diameter |
diameter |
2.562 |
km |
0.647 |
urn:nasa:pds:neowise_diameters_albedos::2.0[mainbelt] (http://adsabs.harvard.edu/abs/2017AJ....154..168M) |
|
geometric albedo |
albedo |
0.060 |
|
0.037 |
urn:nasa:pds:neowise_diameters_albedos::2.0[mainbelt] (http://adsabs.harvard.edu/abs/2011ApJ...741...68M) |
|
|
105349 (2000 QC100) Discovered 2000-Aug-28 by LINEAR at Socorro |
Reference: 20051019/Numbers.arc | Last Updated: 2005-10-26 |
|
[ show close-approach data ]
|